Vertical_Velocity
-5 6 -2 -1 2 -4 1 -4 -5 -4 -1 -1 -4 3 2 -4 10 -6 -0 0 -3 -6 5 -0 2 0 2 5 5 2 5 1 5 1 1 -5 -2 -2 -1 2 -3 -6 -3 -3 4 -0 -4 -1 4 1 2 1 1 1
-0 2 -4 6 3 -4 0 -2 -0 -2 -3 -3 2 -17 -4 -2 -6 2 0 -2 3 -7 -5 1 -1 2 1 12 -1 -0 -2 1 8 1 -1 -0 -3 -2 -0 1 -2 -1 -8 3 -8 3 -6 -2 -3 -5 -1 2 0 0
-2 -8 -3 -1 4 -3 -4 -2 -4 -1 2 -1 -0 -2 -6 4 -1 4 3 -1 2 -7 -5 -1 6 7 -2 -4 21 5 4 0 1 0 2 5 -3 -2 -3 -9 4 -4 -1 -5 -0 0 -2 -2 -2 -3 -2 -3 -1 -1
-2 -5 -4 -1 -3 2 -2 -1 -6 -3 -6 2 -3 -2 -2 -4 -3 1 1 -0 2 -1 -16 -5 -5 -1 -2 1 -10 7 9 -2 -2 -0 2 1 1 -2 3 -2 -5 8 -1 -1 -5 -1 -0 -1 -1 -2 -2 0 -0 -1
1 0 -3 -2 -6 -1 0 -1 -1 -2 -5 11 5 -4 -2 -4 -1 0 -3 6 3 2 -8 -9 0 4 -3 -0 0 -3 13 2 -1 7 1 -4 -3 1 -2 1 -6 -4 -1 -3 -2 3 -1 -4 -1 -1 -1 -3 -0 1
2 -3 -3 -4 -4 1 4 4 -5 1 -2 -3 1 -0 -3 -2 0 -2 -9 5 2 -0 4 -6 -0 1 -1 2 4 -12 15 8 -3 2 2 2 -7 2 -1 -3 -4 1 -0 -0 -3 -6 3 -0 -0 -3 -1 -1 0 -1
-4 1 -1 -4 3 4 4 -3 -5 6 -1 -2 3 4 3 2 4 -0 -2 0 4 2 1 -4 -0 0 0 2 2 -2 14 17 -3 5 1 0 1 4 -4 -4 -3 -1 0 -2 1 0 -0 -1 -5 1 -2 -1 -2 -3
0 -9 -7 0 3 3 -1 -2 -2 -2 2 12 2 -1 -2 3 4 -2 -3 -0 3 3 3 -1 1 16 -2 -2 3 11 -20 12 19 0 -3 2 4 2 -6 -5 3 1 -4 -1 -0 0 -1 0 -1 -1 -1 1 1 -0
1 0 5 2 3 -6 -0 -0 -2 2 7 6 2 4 -7 4 3 -3 -4 2 2 3 1 0 -1 17 4 -1 19 33 13 17 7 10 4 4 -4 -11 -5 1 -3 -4 -1 0 -1 -1 -1 -1 0 -0 -1 -1 -2 -2
1 4 -4 10 8 -3 5 2 -1 -2 10 4 5 -0 2 1 2 -3 -2 6 4 2 -0 -2 2 11 -3 6 27 -4 18 10 4 -2 -0 2 -20 4 -1 3 1 0 -1 -1 -1 -0 -1 -2 -2 -1 -2 -1 -1 -0
2 -1 1 1 -3 2 -7 28 12 4 4 -2 -2 -4 4 2 3 0 4 2 3 0 -1 -0 -1 8 6 1 3 -2 -3 -0 -2 -4 -1 1 -16 4 -3 -2 -2 -0 0 -1 -2 -1 -1 -2 -2 -0 0 -1 -1 -1
-0 2 7 0 3 -7 4 24 1 7 13 7 3 -1 6 8 2 3 2 1 1 -0 0 -2 -2 8 1 4 -2 -2 -1 1 2 -1 1 -4 -5 -3 1 -3 -2 -1 -0 0 1 1 0 -2 -2 -1 -1 -0 -1 0
-2 -3 -0 -6 -8 11 21 2 1 16 14 8 -3 4 1 2 7 1 0 -1 -0 -4 -1 0 -2 10 4 1 1 -0 -0 0 -1 1 -3 -4 2 1 -1 -6 -1 -1 -1 -1 -1 -1 -1 -1 -1 -1 0 -1 -2 0
10 13 1 2 0 4 -3 5 11 10 2 9 -4 0 1 5 2 -4 -3 0 2 0 -2 -3 2 8 1 0 -1 -2 0 -1 0 -1 -1 -0 -0 1 -0 -1 -1 3 2 2 3 2 1 2 1 1 3 4 1 2
-3 -2 -3 -2 5 1 3 30 16 3 6 -6 -6 -3 -1 1 -1 1 2 4 3 1 -4 -2 6 3 -0 -2 -1 -1 -0 -2 -0 -2 -1 -0 -0 0 1 -0 -1 0 -2 -2 -1 -0 -1 -1 -1 -1 -4 -3 -1 1
-3 12 -27 -2 -6 37 13 2 3 1 4 -5 -0 -1 -1 1 -3 1 0 2 4 1 -1 -1 2 -0 -1 -0 -1 -2 -1 -3 0 0 1 -0 -0 0 0 1 0 -0 -1 0 0 0 0 1 1 0 0 1 -0 -1
2 -2 -6 20 13 -4 3 3 2 4 2 -1 -5 -4 -1 1 -2 2 -1 0 8 6 -4 6 -1 -1 0 -0 -3 -3 -4 -0 1 1 -0 -1 -2 0 1 1 -0 -1 -1 -0 -0 0 1 1 0 -0 -1 -1 0 -0
0 9 7 3 4 2 4 1 4 4 -2 -2 -6 -4 -2 -2 2 3 3 2 7 4 -2 5 -2 -0 1 -1 -1 2 1 -0 -0 1 0 -1 -0 -1 -2 -2 -0 0 1 0 0 0 -1 -1 -1 -1 -1 -1 -2 -1
3 7 10 7 2 1 -1 3 4 -1 -2 1 -2 -0 -1 -0 -4 -2 3 6 6 7 9 -1 -3 -0 -3 1 2 1 1 1 1 -0 -0 -1 -1 -0 1 0 -1 -0 -0 -1 -1 -2 -1 -1 -1 -2 -2 -1 -0 -0
6 1 -1 1 0 3 2 -0 0 1 -0 -3 -0 -0 -1 0 1 0 -3 -4 1 4 2 -8 -5 4 1 1 -1 -2 1 1 0 -1 -1 -1 -1 -1 -0 -1 -1 -0 -0 -0 -1 -1 -1 -1 -1 -1 -0 -0 -0 -1
-1 -3 -0 2 2 1 -2 -2 0 -1 -2 -1 0 0 -3 -0 -1 -1 -0 3 -0 -10 -4 -2 8 6 0 5 4 2 -2 -3 -0 -1 -1 -1 -1 -1 -1 -1 -1 -0 -0 0 0 1 -0 -0 1 1 0 -0 -1 -1
2 2 1 -1 -1 -1 -0 1 0 -1 -1 -1 -2 -2 -1 -1 0 -1 -0 -1 -8 1 -0 8 5 -4 -2 1 0 -1 -1 -0 1 2 1 1 -0 -1 -1 -1 0 0 0 -0 -1 -1 -1 -0 -0 0 0 0 0 -0
2 1 -0 -0 3 0 0 1 -0 -2 -1 -1 -1 -0 -1 -0 -0 1 -1 -7 -5 7 2 -3 -4 -4 -1 2 0 1 0 -1 1 1 -0 -0 0 0 -0 -0 -0 -0 -1 -1 -1 -2 -1 -1 0 0 1 -0 -0 -0
1 -1 0 1 1 3 1 -1 -3 -1 0 -0 1 1 1 2 1 1 1 1 0 -1 -1 -1 -2 -2 -3 -0 1 0 -2 -0 0 1 0 -1 0 0 0 1 0 -1 -1 1 1 0 -0 -1 -1 -1 -1 -1 -1 -0
3 1 2 3 0 -2 -3 -2 -2 -2 -0 0 1 1 0 -1 -1 1 -0 -2 -3 -2 -1 -0 0 -1 -1 2 2 1 1 1 0 -1 -0 0 -0 0 1 -0 1 -1 -0 1 -1 -1 -1 -1 -1 -1 -2 -1 -1 -0
0 0 2 1 -3 -3 -2 -3 -3 -2 -1 -0 0 0 -0 -1 -0 -1 1 3 3 4 3 2 -0 -2 -3 -3 -2 -1 -1 -1 -1 -1 -2 -0 1 0 1 1 1 0 -0 1 0 0 -0 -1 -1 -1 -0 -0 0 1
0 0 0 -1 -4 -2 -0 -0 -1 -1 -2 -3 -2 -2 -1 -1 -1 -1 -0 -0 0 1 1 1 0 0 0 1 0 0 -0 -1 -1 -2 -1 0 1 1 -0 -0 -1 -0 0 -0 -1 -1 -1 -1 -0 -1 -0 -1 -2 -2
-2 -3 -3 -0 1 0 1 1 -0 -1 -2 -0 -1 -3 -3 -0 -1 -1 -2 -3 -0 1 0 -0 -0 0 -1 -1 -1 -0 0 0 -1 -1 -1 0 -1 -1 -0 -2 -1 0 0 1 0 -0 -1 -1 -1 -1 -1 -0 0 -2
-3 -1 -0 1 -0 -2 -3 -2 0 -1 1 0 -2 2 -3 1 0 -2 -3 -6 -5 -3 -1 -0 1 -2 3 1 2 -0 -0 1 -1 -0 0 2 -1 2 -4 -1 -0 -0 0 1 0 1 0 0 -1 -1 -0 -0 0 -2
0 -3 -3 -2 -2 -2 1 -0 -1 -1 -1 -1 -3 -4 -4 -1 2 -2 -2 -1 -2 -2 -2 -3 -0 -3 -1 -6 1 1 -0 -2 -1 -1 -2 1 2 1 -0 -0 -1 -0 -0 0 0 0 0 1 1 0 -2 -1 -1 -1
-4 -3 -2 -1 -1 2 1 -1 -2 -3 -3 -2 -3 -10 -3 -13 -2 2 -4 2 1 3 0 0 -5 -0 -6 -3 -5 -2 2 1 -1 1 -1 -1 1 1 1 -0 0 1 1 1 1 2 1 -1 -2 -1 -0 -1 -1 -3
2 1 1 0 -0 1 -1 -5 -6 -7 -5 -4 -4 -4 -6 -10 -21 -9 8 -0 -1 -5 -1 -7 -5 -0 -4 -5 -4 -2 0 1 2 0 -1 -0 -0 -0 0 0 0 0 -0 0 1 0 -1 -0 1 1 1 0 -2 -2
0 1 -1 -5 -5 -5 -5 -8 -7 -15 -11 -9 -6 -2 -4 -1 -19 -18 -10 5 0 -6 -6 -7 -6 -4 -2 -1 -1 -0 -1 -0 0 0 -0 1 1 1 1 0 0 0 -0 -1 -2 -2 0 1 1 -1 -2 -2 -2 -0
Height
3063 3062 3059 3057 3055 3052 3050 3048 3044 3041 3038 3035 3033 3028 3024 3022 3018 3016 3014 3012 3010 3007 3008 3006 3007 3008 3010 3013 3016 3017 3020 3019 3021 3023 3024 3023 3024 3023 3023 3024 3023 3025 3027 3028 3030 3030 3027 3023 3025 3028 3027 3026 3028 3029
3058 3056 3055 3053 3051 3048 3045 3041 3038 3035 3032 3028 3025 3024 3020 3015 3011 3008 3006 3005 3003 3000 3001 2999 3000 3001 3003 3006 3009 3010 3013 3014 3017 3019 3021 3021 3021 3020 3021 3021 3020 3023 3022 3023 3024 3023 3021 3020 3020 3021 3023 3025 3026 3026
3051 3050 3048 3046 3045 3042 3039 3037 3034 3031 3027 3023 3020 3017 3013 3010 3006 3001 2999 2997 2995 2990 2989 2987 2990 2991 2992 2996 2999 3002 3007 3009 3011 3013 3016 3017 3018 3017 3017 3017 3018 3016 3017 3018 3019 3018 3018 3018 3019 3020 3021 3022 3023 3024
3044 3043 3042 3040 3037 3034 3031 3028 3027 3024 3020 3015 3012 3010 3006 3003 3001 2998 2995 2991 2989 2984 2975 2975 2974 2978 2981 2984 2985 2993 2999 3003 3007 3009 3011 3012 3014 3013 3014 3013 3014 3015 3014 3014 3015 3015 3015 3016 3017 3017 3018 3019 3020 3021
3037 3035 3034 3032 3029 3025 3022 3019 3017 3015 3012 3009 3006 3002 3000 2995 2994 2992 2990 2987 2982 2981 2971 2965 2964 2967 2966 2970 2976 2984 2990 2997 3001 3005 3006 3008 3009 3010 3009 3008 3006 3008 3010 3011 3013 3012 3012 3011 3012 3013 3014 3015 3016 3017
3029 3027 3025 3022 3018 3016 3013 3011 3009 3005 3004 3002 2999 2995 2994 2990 2987 2985 2982 2981 2975 2972 2969 2962 2960 2958 2957 2959 2966 2977 2982 2991 2996 2999 3001 3002 3003 3007 3004 3001 3000 3003 3004 3005 3006 3006 3007 3006 3007 3008 3009 3010 3012 3013
3019 3017 3014 3012 3007 3002 3001 2999 2997 2997 2996 2995 2993 2990 2988 2984 2981 2979 2979 2977 2973 2971 2968 2961 2957 2955 2953 2955 2961 2970 2976 2984 2992 2995 2996 2998 3000 3000 2997 2993 2996 2999 3000 3000 3000 3001 3002 3001 3001 3003 3004 3006 3007 3008
3008 3005 3003 2999 2995 2990 2987 2986 2986 2988 2987 2988 2985 2982 2983 2980 2975 2971 2971 2970 2971 2969 2967 2962 2959 2956 2955 2957 2962 2969 2975 2981 2986 2989 2991 2993 2995 2993 2988 2988 2992 2993 2993 2993 2994 2994 2994 2995 2996 2997 2998 2999 3001 3002
2994 2991 2987 2981 2978 2975 2974 2975 2978 2977 2978 2981 2979 2976 2975 2975 2972 2970 2970 2969 2969 2971 2966 2962 2960 2959 2960 2963 2965 2968 2974 2977 2982 2982 2986 2989 2986 2983 2981 2983 2986 2986 2986 2986 2986 2986 2987 2988 2989 2991 2992 2993 2994 2995
2979 2975 2971 2967 2962 2962 2961 2962 2968 2970 2971 2972 2973 2971 2972 2974 2972 2972 2971 2970 2967 2966 2963 2961 2961 2961 2963 2962 2964 2970 2970 2975 2977 2981 2982 2981 2976 2977 2977 2977 2978 2978 2979 2979 2979 2981 2981 2982 2982 2983 2985 2985 2986 2988
2962 2958 2956 2951 2948 2948 2952 2954 2956 2959 2960 2966 2967 2967 2970 2971 2971 2971 2969 2967 2965 2963 2960 2960 2960 2960 2962 2964 2965 2970 2971 2973 2975 2977 2978 2974 2969 2971 2972 2972 2970 2970 2972 2973 2973 2974 2975 2976 2976 2977 2977 2978 2979 2980
2945 2943 2938 2935 2936 2937 2942 2946 2951 2955 2957 2959 2962 2965 2968 2969 2969 2968 2964 2963 2960 2960 2958 2959 2961 2961 2963 2964 2967 2969 2970 2972 2973 2974 2974 2968 2966 2967 2967 2966 2965 2966 2967 2967 2968 2969 2970 2970 2971 2971 2971 2971 2972 2973
2931 2929 2927 2925 2926 2929 2933 2943 2946 2949 2953 2955 2957 2963 2965 2965 2963 2961 2959 2957 2956 2956 2956 2957 2960 2961 2963 2965 2966 2967 2968 2970 2971 2970 2966 2962 2963 2963 2964 2964 2965 2965 2965 2965 2965 2965 2965 2967 2967 2968 2967 2966 2966 2966
2921 2919 2920 2923 2920 2921 2929 2937 2941 2945 2948 2951 2954 2957 2957 2954 2953 2953 2955 2955 2955 2956 2956 2957 2959 2961 2962 2964 2964 2965 2968 2968 2966 2965 2961 2960 2960 2961 2963 2964 2965 2965 2965 2965 2965 2965 2965 2966 2965 2964 2964 2963 2963 2963
2913 2914 2916 2917 2917 2916 2923 2930 2936 2940 2943 2946 2951 2950 2947 2947 2948 2949 2951 2952 2953 2954 2956 2957 2959 2961 2961 2963 2963 2964 2964 2963 2961 2959 2958 2958 2958 2959 2961 2963 2964 2965 2965 2966 2966 2966 2966 2966 2966 2965 2964 2963 2962 2961
2906 2907 2906 2913 2913 2915 2921 2929 2933 2936 2938 2942 2943 2942 2943 2943 2946 2947 2948 2949 2951 2952 2955 2957 2958 2959 2960 2960 2960 2960 2961 2958 2958 2957 2957 2956 2956 2958 2960 2962 2963 2964 2965 2965 2966 2966 2966 2965 2965 2964 2964 2963 2963 2962
2897 2899 2902 2908 2912 2915 2922 2927 2929 2932 2934 2935 2937 2939 2941 2941 2943 2944 2946 2946 2948 2950 2952 2954 2955 2955 2956 2956 2956 2955 2956 2957 2957 2957 2956 2956 2955 2957 2959 2960 2961 2962 2963 2964 2964 2964 2963 2963 2962 2962 2961 2960 2959 2959
2894 2898 2902 2906 2912 2917 2921 2924 2927 2929 2928 2930 2934 2937 2938 2940 2940 2941 2943 2944 2946 2947 2949 2951 2951 2951 2951 2951 2952 2954 2954 2955 2956 2956 2956 2956 2957 2957 2957 2958 2958 2959 2959 2959 2959 2959 2959 2958 2957 2956 2955 2954 2953 2951
2895 2899 2904 2909 2912 2916 2919 2923 2925 2925 2926 2928 2931 2933 2934 2936 2937 2938 2939 2941 2942 2944 2946 2947 2948 2946 2949 2951 2952 2953 2954 2954 2954 2954 2954 2954 2954 2954 2954 2954 2954 2954 2954 2954 2954 2953 2953 2952 2951 2950 2948 2947 2945 2944
2898 2901 2905 2908 2912 2916 2919 2921 2923 2924 2924 2925 2926 2928 2930 2931 2933 2934 2935 2937 2938 2939 2941 2941 2942 2945 2946 2947 2949 2949 2950 2950 2951 2951 2951 2951 2951 2951 2951 2951 2950 2950 2949 2948 2947 2947 2946 2946 2945 2944 2943 2942 2940 2939
2898 2902 2906 2909 2913 2916 2919 2919 2920 2921 2921 2922 2923 2924 2925 2926 2927 2930 2931 2931 2932 2933 2935 2936 2939 2942 2942 2942 2943 2945 2945 2946 2947 2946 2946 2946 2947 2946 2946 2946 2945 2945 2944 2943 2942 2941 2941 2940 2939 2938 2937 2936 2935 2934
2901 2904 2908 2911 2914 2917 2918 2918 2919 2919 2920 2920 2920 2920 2921 2922 2922 2924 2925 2926 2926 2929 2930 2932 2934 2935 2935 2935 2936 2937 2938 2939 2939 2940 2940 2940 2939 2939 2940 2940 2939 2939 2938 2938 2937 2936 2935 2934 2933 2932 2931 2930 2929 2927
2904 2907 2910 2913 2916 2916 2919 2917 2918 2919 2919 2918 2918 2918 2918 2918 2919 2920 2920 2920 2921 2924 2924 2925 2928 2929 2929 2930 2931 2932 2932 2933 2933 2933 2933 2933 2933 2934 2934 2934 2933 2933 2933 2932 2931 2929 2928 2928 2926 2925 2924 2923 2922 2921
2908 2910 2912 2913 2915 2915 2917 2918 2919 2919 2919 2919 2919 2919 2918 2918 2918 2917 2917 2917 2917 2918 2919 2920 2921 2922 2922 2923 2923 2924 2925 2927 2927 2927 2928 2928 2928 2928 2927 2927 2927 2927 2926 2925 2924 2923 2922 2921 2920 2918 2917 2916 2915 2914
2911 2913 2913 2913 2914 2916 2918 2919 2920 2920 2920 2920 2920 2919 2919 2919 2918 2918 2917 2917 2916 2916 2916 2916 2917 2917 2917 2916 2917 2917 2919 2919 2920 2921 2922 2922 2922 2922 2921 2921 2921 2920 2919 2918 2917 2917 2915 2914 2912 2911 2910 2908 2907 2906
2909 2911 2913 2913 2915 2917 2919 2920 2921 2921 2921 2921 2920 2920 2919 2919 2919 2919 2919 2919 2919 2918 2918 2917 2917 2916 2915 2914 2914 2914 2913 2914 2914 2914 2915 2915 2915 2915 2915 2915 2914 2913 2912 2911 2910 2909 2907 2906 2905 2903 2902 2900 2899 2897
2910 2911 2912 2914 2916 2917 2919 2919 2920 2921 2921 2921 2921 2920 2920 2919 2919 2919 2918 2918 2918 2917 2916 2916 2915 2915 2915 2914 2914 2913 2912 2912 2911 2911 2911 2910 2909 2909 2909 2908 2907 2907 2905 2904 2903 2901 2899 2898 2896 2894 2893 2891 2890 2888
2911 2912 2913 2915 2916 2916 2917 2918 2918 2918 2918 2919 2919 2919 2919 2918 2918 2918 2917 2916 2916 2915 2914 2913 2912 2911 2911 2910 2909 2908 2908 2907 2906 2906 2905 2904 2903 2903 2902 2901 2900 2899 2897 2896 2894 2893 2891 2889 2887 2886 2884 2882 2880 2877
2910 2911 2912 2912 2913 2914 2914 2915 2915 2915 2915 2915 2915 2915 2913 2914 2914 2913 2912 2911 2911 2911 2910 2910 2909 2907 2907 2906 2904 2903 2902 2901 2900 2900 2899 2898 2897 2897 2894 2893 2892 2890 2888 2887 2885 2883 2881 2879 2878 2876 2874 2872 2871 2868
2907 2908 2908 2909 2909 2909 2910 2910 2909 2909 2908 2907 2906 2905 2904 2904 2905 2904 2903 2902 2901 2901 2902 2901 2901 2900 2899 2898 2897 2896 2895 2894 2893 2892 2891 2891 2890 2889 2887 2885 2883 2881 2879 2877 2875 2873 2872 2870 2868 2866 2864 2862 2859 2857
2904 2904 2904 2904 2904 2905 2904 2903 2902 2900 2899 2898 2897 2895 2893 2891 2891 2891 2891 2891 2891 2891 2890 2890 2890 2889 2889 2889 2887 2886 2887 2886 2885 2883 2882 2882 2881 2880 2878 2876 2874 2871 2869 2868 2866 2864 2862 2860 2857 2855 2852 2849 2846 2842
2900 2900 2900 2900 2900 2899 2897 2896 2893 2891 2889 2888 2887 2886 2885 2881 2878 2879 2880 2879 2879 2878 2877 2876 2876 2876 2877 2877 2877 2876 2876 2876 2876 2875 2874 2873 2872 2870 2868 2866 2864 2862 2861 2859 2857 2854 2851 2848 2846 2843 2839 2836 2833 2830
2897 2897 2897 2895 2893 2892 2891 2888 2884 2881 2879 2877 2875 2875 2873 2870 2866 2867 2868 2866 2866 2863 2862 2861 2861 2862 2863 2865 2866 2866 2867 2867 2866 2866 2865 2864 2862 2861 2860 2858 2856 2855 2852 2850 2846 2843 2840 2836 2833 2830 2827 2824 2822 2820